Weather History for PAFB - May, 2014

Change the Weather History Date:

Tuesday, May 13, 2014

  Actual Average Record
Temperature  
Mean Temperature 50 °F -  
Max Temperature 57 °F 55 °F 71 °F (2005)
Min Temperature 44 °F 36 °F 23 °F (2013)
Degree Days  
Heating Degree Days 14    
Moisture  
Dew Point 26 °F    
Average Humidity 41    
Maximum Humidity 66    
Minimum Humidity 25    
Precipitation  
Precipitation 0.00 in - - ()
Sea Level Pressure  
Sea Level Pressure 30.25 in    
Wind  
Wind Speed 9 mph (West)    
Max Wind Speed 18 mph    
Max Gust Speed 25 mph    
Visibility 10 miles    
Events      
Averages and records for this station are not official NWS values.
T = Trace of Precipitation, MM = Missing Value Source: NWS Daily Summary

Daily Weather History Graph

Daily Weather History Graph

Search for Another Location

Airport or City:

Trip Planner

Search our weather history database for the weather conditions in past years. The results will help you decide how hot, cold, wet, or windy it might be!

Date:

Astronomy

May. 13, 2014 Rise Set
Actual Time 4:33 AM AKDT 11:02 PM AKDT
Civil Twilight 2:44 AM AKDT 12:58 AM AKDT
Nautical Twilight Sun does not set Sun does not set
Astronomical Twilight Sun does not set Sun does not set
Moon 9:42 PM AKDT (5/13) 4:43 AM AKDT (5/13)
Length of Visible Light 22h 13m
Length of Day
18h 28m
Waxing Gibbous, 99% of the Moon is Illuminated
May 13
Waxing Gibbous
May 14
Full
May 21
Last Quarter
May 28
New
Jun 5
First Quarter

Hourly Weather History & Observations

Time (AKDT) Temp. Windchill Dew Point Humidity Pressure Visibility Wind Dir Wind Speed Gust Speed Precip Events Conditions
12:56 AM 45.0 °F - 32.0 °F 60% 30.17 in 10.0 mi North - - N/A   Clear
1:56 AM 46.9 °F - 30.0 °F 52% 30.16 in 10.0 mi North - - N/A   Clear
2:56 AM 46.0 °F - 28.9 °F 51% 30.16 in 10.0 mi North - - N/A   Clear
3:56 AM 45.0 °F - 28.9 °F 53% 30.15 in 10.0 mi North - - N/A   Mostly Cloudy
4:56 AM 44.6 °F - 28.4 °F 53% 30.15 in 10.0 mi North - - N/A   Overcast
5:56 AM 44.1 °F - 28.0 °F 53% 30.17 in 10.0 mi North - - N/A   Mostly Cloudy
6:19 AM 44.6 °F 43.1 °F 28.4 °F 53% 30.16 in 7.0 mi East 3.5 mph - N/A   Mostly Cloudy
6:55 AM 46.4 °F - 28.4 °F 50% 30.17 in 7.0 mi East 2.3 mph - N/A   Overcast
7:55 AM 44.6 °F 42.2 °F 33.8 °F 66% 30.16 in 7.0 mi East 4.6 mph - N/A   Overcast
8:55 AM 48.2 °F - 33.8 °F 58% 30.17 in 7.0 mi ENE 2.3 mph - N/A   Overcast
9:55 AM 51.8 °F - 35.6 °F 54% 30.19 in 13.0 mi North 2.3 mph - N/A   Overcast
10:55 AM 55.4 °F - 30.2 °F 38% 30.20 in 13.0 mi West 16.1 mph 20.7 mph N/A   Overcast
11:55 AM 51.8 °F - 21.2 °F 30% 30.24 in 13.0 mi West 17.3 mph 24.2 mph N/A   Mostly Cloudy
12:55 PM 53.6 °F - 28.4 °F 38% 30.25 in 25.0 mi West 12.7 mph 20.7 mph N/A   Partly Cloudy
1:55 PM 55.4 °F - 26.6 °F 33% 30.27 in 25.0 mi West 18.4 mph 25.3 mph N/A   Scattered Clouds
2:55 PM 55.4 °F - 26.6 °F 33% 30.28 in 35.0 mi West 17.3 mph 25.3 mph N/A   Scattered Clouds
3:55 PM 57.2 °F - 24.8 °F 29% 30.28 in 35.0 mi West 17.3 mph 25.3 mph N/A   Scattered Clouds
4:55 PM 55.4 °F - 21.2 °F 26% 30.31 in 35.0 mi West 17.3 mph 25.3 mph N/A   Scattered Clouds
5:55 PM 55.4 °F - 21.2 °F 26% 30.32 in 35.0 mi WSW 17.3 mph - N/A   Scattered Clouds
6:55 PM 55.4 °F - 19.4 °F 25% 30.35 in 35.0 mi West 17.3 mph - N/A   Scattered Clouds
7:55 PM 53.6 °F - 19.4 °F 26% 30.35 in 35.0 mi WSW 13.8 mph - N/A   Partly Cloudy
8:55 PM 53.6 °F - 19.4 °F 26% 30.38 in 35.0 mi WNW 9.2 mph - N/A   Partly Cloudy
9:55 PM 50.0 °F - 19.4 °F 30% 30.40 in 35.0 mi WNW 9.2 mph - N/A   Partly Cloudy
10:56 PM 48.9 °F - 19.9 °F 32% 30.42 in 10.0 mi North - - N/A   Clear
11:56 PM 44.1 °F - 21.9 °F 42% 30.45 in 10.0 mi North - - N/A   Clear